This is the latest recevied weather packets stored in our database for station/object KG7BDA. If no packets are shown the sender has not sent any weather packets the latest 10 day(s).
| Time | Temp. | Humidity | Pressure | Rain* | Wind** | Luminosity | Snow |
|---|---|---|---|---|---|---|---|
| 1778002760 | 18.33° C | 38% | 1011.8 hPa | 0 mm | - | - | - |
| 1778002400 | 17.78° C | 37% | 1011.7 hPa | 0 mm | - | - | - |
| 1778002041 | 18.33° C | 40% | 1011.7 hPa | 0 mm | - | - | - |
| 1778001680 | 17.78° C | 39% | 1011.5 hPa | 0 mm | - | - | - |
| 1778001320 | 17.78° C | 39% | 1011.6 hPa | 0 mm | - | - | - |
| 1778000961 | 17.78° C | 38% | 1011.6 hPa | 0 mm | - | - | - |
| 1778000601 | 18.33° C | 38% | 1011.7 hPa | 0 mm | - | - | - |
| 1778000401 | 17.78° C | 40% | 1011.7 hPa | 0 mm | - | - | - |
| 1778000240 | 17.78° C | 40% | 1011.7 hPa | 0 mm | - | - | - |
| 1777999880 | 17.78° C | 40% | 1011.7 hPa | 0 mm | - | - | - |
| 1777999521 | 17.22° C | 42% | 1011.6 hPa | 0 mm | - | - | - |
| 1777999373 | 17.22° C | 43% | 1011.7 hPa | 0 mm | - | - | - |
| 1777999161 | 17.22° C | 43% | 1011.7 hPa | 0 mm | - | - | - |
| 1777998800 | 16.67° C | 42% | 1011.6 hPa | 0 mm | - | - | - |
| 1777998440 | 16.67° C | 43% | 1011.5 hPa | 0 mm | - | - | - |
| 1777998080 | 16.11° C | 46% | 1011.6 hPa | 0 mm | - | - | - |
| 1777997720 | 16.11° C | 45% | 1011.6 hPa | 0 mm | - | - | - |
| 1777997360 | 15.56° C | 45% | 1011.4 hPa | 0 mm | - | - | - |
| 1777997000 | 15.56° C | 45% | 1011.4 hPa | 0 mm | - | - | - |
| 1777996641 | 15° C | 47% | 1011.4 hPa | 0 mm | - | - | - |
| 1777996281 | 15° C | 46% | 1011.4 hPa | 0 mm | - | - | - |
| 1777995920 | 15° C | 46% | 1011.4 hPa | 0 mm | - | - | - |
| 1777995560 | 15° C | 48% | 1011.4 hPa | 0 mm | - | - | - |
| 1777995200 | 15° C | 49% | 1011.4 hPa | 0 mm | - | - | - |
| 1777994840 | 15° C | 47% | 1011.4 hPa | 0 mm | - | - | - |
* Rain latest hour (hover to see other rain measurements)
** Current wind speed in m/s (hover to see current wind gust speed)